[[{"header":{"parameterUnit":"m.s-1","parameterCategory":1,"la1":30.2992,"la2":30.254,"lo1":-89.0895,"lo2":-89.0443,"dy":0.0025,"dx":0.0025,"nx":19,"ny":19,"refTime":"2026-03-07T09:00:00:Z","depth":0,"parameterNumber":2,"parameterNumberName":"U-component_of_WINDS"},"data":[0,0,0,0.5269,0.5271,0.5381,0.5381,0.552,0.5522,0,0,0,0,0,0,0,0,0,0,0,0.5235,0.5236,0.5269,0.5271,0.538,0.5381,0.552,0.5522,0,0,0,0,0,0,0,0,0,0,0,0.5235,0.5236,0.5237,0.5272,0.538,0.5381,0.552,0.5438,0,0,0,0,0,0,0,0,0,0,0.5332,0.53,0.5236,0.5237,0.5272,0.538,0.5381,0.5434,0.5443,0.547,0,0.5494,0,0.551,0.5531,0.5531,0,0,0,0.5272,0.5292,0.5322,0.5237,0.5273,0.538,0.5332,0.5439,0.5449,0.5482,0.5496,0.5501,0.5512,0.5532,0.5532,0.5686,0.5687,0,0,0.5266,0.5255,0.5315,0.5329,0.5311,0.5328,0.5335,0.5445,0.5459,0.5496,0.5504,0.5514,0.5533,0.5534,0.5686,0.5687,0,0,0,0.5248,0.525,0.5278,0.5323,0.5343,0.5331,0.5339,0.5454,0.5464,0.5506,0.5516,0.5533,0.5535,0.5685,0.5686,0.5708,0,0,0,0.5245,0.524,0.5275,0.5269,0.5341,0.54,0.5346,0.5457,0.547,0.5515,0.5533,0.5536,0.5684,0.5686,0.5706,0.5721,0,0,0,0.5229,0.5238,0.5253,0.5268,0.5315,0.5398,0.5415,0.546,0.5476,0.5531,0.5537,0.5684,0.5685,0.5704,0.5718,0.5759,0,0,0,0.5208,0.5271,0.5253,0.5328,0.5314,0.541,0.5414,0.5487,0.5537,0.5534,0.5684,0.5686,0.5703,0.5716,0.5756,0.5791,0.5805,0,0,0.5281,0.5279,0.5324,0.5312,0.5408,0.5395,0.5495,0.5553,0.5569,0.5647,0.5651,0.5707,0.5717,0.5758,0.5881,0.5892,0,0,0,0.5343,0.5375,0.5404,0.5451,0.5496,0.5536,0.5579,0.5601,0.5667,0.5606,0.5732,0.5739,0.5764,0.5781,0.579,0.5812,0.5693,0.5693,0.5693,0.543,0.5447,0.5523,0.5553,0.5599,0.5643,0.5682,0.5719,0.5723,0.5752,0.5776,0.5848,0.5868,0.5875,0.5898,0.5795,0.5795,0.5795,0.5795,0.5539,0.5587,0.5591,0.5666,0.5684,0.5748,0.5793,0.5794,0.5856,0.5832,0.5854,0.5827,0.5886,0.5907,0.5797,0.5797,0.5796,0.5796,0.5796,0.5598,0.5624,0.5649,0.5719,0.5772,0.5801,0.5861,0.5875,0.5889,0.5911,0.5938,0.5938,0.5941,0.5923,0.5923,0.5924,0.5924,0.5924,0.5924,0.565,0.5677,0.5725,0.5779,0.5811,0.5856,0.5902,0.5935,0.5975,0.5981,0.5981,0.5983,0.5888,0.5864,0.5928,0.5927,0.5927,0.5927,0.5926,0.5755,0.5734,0.5808,0.5841,0.5906,0.5958,0.5975,0.6041,0.607,0.61,0.6097,0.6024,0.6023,0.6016,0.5997,0.6092,0.6092,0.6092,0.6092,0.5805,0.5806,0.5887,0.5938,0.599,0.6014,0.6099,0.6136,0.617,0.6189,0.6178,0.6153,0.6145,0.6149,0.614,0.6122,0.6246,0.6247,0.6247,0.5872,0.5879,0.5948,0.5981,0.6033,0.6077,0.6158,0.6218,0.6252,0.6253,0.6205,0.6199,0.6159,0.6145,0.6145,0.6129,0.6097,0,0]},{"header":{"parameterUnit":"m.s-1","parameterCategory":1,"la1":30.2992,"la2":30.254,"lo1":-89.0895,"lo2":-89.0443,"dy":0.0025,"dx":0.0025,"nx":19,"ny":19,"refTime":"2026-03-07T09:00:00:Z","depth":0,"parameterNumber":3,"parameterNumberName":"V-component_of_WINDS"},"data":[0,0,0,2.3744,2.3747,2.3905,2.3906,2.4101,2.4103,0,0,0,0,0,0,0,0,0,0,0,2.3694,2.3695,2.3744,2.3747,2.3905,2.3906,2.4101,2.4103,0,0,0,0,0,0,0,0,0,0,0,2.3693,2.3695,2.3696,2.3748,2.3905,2.3906,2.41,2.3983,0,0,0,0,0,0,0,0,0,0,2.3831,2.3782,2.3694,2.3696,2.3749,2.3905,2.3906,2.3978,2.3991,2.4027,0,2.4059,0,2.4084,2.4116,2.4116,0,0,0,2.375,2.3772,2.3817,2.3697,2.375,2.3905,2.3835,2.3985,2.4,2.4044,2.4062,2.4069,2.4087,2.4117,2.4118,2.4319,2.432,0,0,2.3741,2.3721,2.3807,2.3826,2.3802,2.383,2.384,2.3994,2.4012,2.4063,2.4074,2.409,2.4118,2.4119,2.4318,2.4319,0,0,0,2.3714,2.3714,2.3756,2.3818,2.3847,2.3834,2.3846,2.4005,2.4021,2.4076,2.4093,2.4119,2.4121,2.4318,2.4319,2.4341,0,0,0,2.3709,2.3699,2.3752,2.3741,2.3844,2.3928,2.3853,2.401,2.4028,2.4092,2.4119,2.4123,2.4317,2.4318,2.4338,2.4355,0,0,0,2.3685,2.3696,2.3718,2.374,2.3807,2.3926,2.3951,2.4014,2.4038,2.4116,2.4124,2.4316,2.4318,2.4336,2.4352,2.4402,0,0,0,2.3652,2.3736,2.3718,2.3817,2.3806,2.3938,2.395,2.405,2.4119,2.412,2.4317,2.4319,2.4335,2.4349,2.44,2.4442,2.4458,0,0,2.3746,2.3746,2.3806,2.3795,2.3925,2.3916,2.405,2.4133,2.4159,2.4264,2.4269,2.4339,2.4351,2.4402,2.455,2.4562,0,0,0,2.3829,2.3871,2.391,2.3976,2.4041,2.4098,2.4162,2.4192,2.4283,2.4209,2.4371,2.4379,2.441,2.4431,2.4441,2.4469,2.4327,2.4327,2.4327,2.3933,2.3961,2.4061,2.4108,2.4171,2.4235,2.4289,2.434,2.4351,2.4388,2.442,2.4507,2.4531,2.4539,2.4567,2.4444,2.4444,2.4444,2.4444,2.4073,2.4139,2.4148,2.4249,2.4277,2.4362,2.4426,2.443,2.4513,2.4485,2.4514,2.4482,2.4552,2.4578,2.4446,2.4446,2.4445,2.4445,2.4445,2.4146,2.4182,2.4217,2.4313,2.4384,2.4427,2.4505,2.4528,2.455,2.4577,2.4613,2.4613,2.4616,2.4593,2.4593,2.4593,2.4593,2.4594,2.4594,2.4209,2.4247,2.4311,2.4385,2.4429,2.449,2.4553,2.4597,2.4651,2.4661,2.4661,2.4667,2.4553,2.4524,2.4599,2.4598,2.4597,2.4597,2.4596,2.4343,2.4316,2.4414,2.4458,2.4546,2.4614,2.4641,2.4727,2.4766,2.4804,2.4803,2.4714,2.4716,2.4708,2.4684,2.4796,2.4796,2.4796,2.4796,2.4406,2.4408,2.4513,2.4581,2.4651,2.4684,2.4793,2.4842,2.4888,2.4914,2.49,2.487,2.4861,2.4868,2.4857,2.4835,2.4983,2.4984,2.4984,2.449,2.45,2.4589,2.4634,2.4704,2.4762,2.4865,2.4942,2.4989,2.4992,2.4934,2.4926,2.4878,2.4861,2.4865,2.4847,2.4807,0,0]}]]